CW1621 Weather Reports


Display with metric or nautical units.
time (UTC)temp
F
wind
direction
speed
MPH
gust
MPH
rain 1hr
in
rain 24hr
in
rain mn
in
humidity
%
barometer
mb
20260507195603 64 291 3.0 7.0 0.00 0.00 0.00 61 1016.1
20260507195103 65 285 5.0 6.0 0.00 0.00 0.00 55 1016.1
20260507194603 66 294 3.0 5.0 0.00 0.00 0.00 56 1015.8
20260507194103 66 349 4.0 8.0 0.00 0.00 0.00 59 1015.9
20260507193603 66 58 3.0 7.0 0.00 0.00 0.00 57 1015.8
20260507193103 66 307 2.0 6.0 0.00 0.00 0.00 59 1015.9
20260507192602 65 23 4.0 10.0 0.00 0.00 0.00 56 1015.8
20260507192103 66 5 3.0 8.0 0.00 0.00 0.00 60 1015.9
20260507191103 64 326 2.0 12.0 0.00 0.00 0.00 60 1016.0
20260507190603 65 358 3.0 9.0 0.00 0.00 0.00 59 1015.9
20260507185603 64 159 1.0 5.0 0.00 0.00 0.00 65 1016.1
20260507185103 63 33 2.0 8.0 0.00 0.00 0.00 61 1016.1
20260507184603 62 46 6.0 9.0 0.00 0.00 0.00 61 1016.5
20260507184102 62 278 1.0 5.0 0.00 0.00 0.00 64 1016.4
20260507183602 61 66 6.0 12.0 0.00 0.00 0.00 62 1016.5
20260507183103 61 89 7.0 9.0 0.00 0.00 0.00 62 1016.4
20260507182603 61 73 6.0 10.0 0.00 0.00 0.00 62 1016.5
20260507182103 61 43 7.0 13.0 0.00 0.00 0.00 64 1016.4
20260507181603 61 59 6.0 10.0 0.00 0.00 0.00 63 1016.4
20260507181103 61 42 7.0 15.0 0.00 0.00 0.00 62 1016.4
20260507180603 62 54 5.0 12.0 0.00 0.00 0.00 62 1016.2
20260507175603 61 53 7.0 12.0 0.00 0.00 0.00 61 1016.2
20260507175103 60 22 4.0 12.0 0.00 0.00 0.00 64 1016.2
20260507174104 61 88 5.0 12.0 0.00 0.00 0.00 59 1016.3
20260507173603 61 44 5.0 10.0 0.00 0.00 0.00 60 1016.3
20260507173103 62 36 6.0 12.0 0.00 0.00 0.00 58 1016.2
20260507172602 63 39 2.0 8.0 0.00 0.00 0.00 58 1015.8
20260507172103 62 54 2.0 7.0 0.00 0.00 0.00 60 1016.0
20260507171603 62 30 3.0 6.0 0.00 0.00 0.00 59 1016.2
20260507171103 61 63 3.0 5.0 0.00 0.00 0.00 58 1016.2
20260507170603 60 64 4.0 6.0 0.00 0.00 0.00 58 1016.2
20260507170104 60 118 2.0 6.0 0.00 0.00 0.00 58 1016.3
20260507165103 60 102 3.0 6.0 0.00 0.00 0.00 58 1016.2
20260507164602 60 55 3.0 6.0 0.00 0.00 0.00 59 1016.3
20260507164103 59 83 3.0 7.0 0.00 0.00 0.00 60 1016.5
20260507163605 59 94 2.0 5.0 0.00 0.00 0.00 62 1016.6
20260507163103 59 100 3.0 6.0 0.00 0.00 0.00 61 1016.6
20260507162602 59 200 3.0 5.0 0.00 0.00 0.00 58 1016.5
20260507162103 59 345 1.0 3.0 0.00 0.00 0.00 56 1016.6
20260507161603 60 345 1.0 3.0 0.00 0.00 0.00 57 1016.6
20260507161103 59 345 2.0 5.0 0.00 0.00 0.00 61 1016.8
20260507160603 60 263 4.0 6.0 0.00 0.00 0.00 56 1016.6
20260507155102 61 52 2.0 5.0 0.00 0.00 0.00 55 1016.5
20260507154603 61 25 2.0 5.0 0.00 0.00 0.00 55 1016.5
20260507153603 62 31 3.0 7.0 0.00 0.00 0.00 55 1016.2
20260507152603 62 30 1.0 3.0 0.00 0.00 0.00 56 1016.2
20260507152102 61 20 2.0 5.0 0.00 0.00 0.00 57 1016.5
20260507151603 61 354 2.0 6.0 0.00 0.00 0.00 56 1016.5
20260507151103 60 0 2.0 3.0 0.00 0.00 0.00 58 1016.5
20260507150603 59 5 0.0 3.0 0.00 0.00 0.00 59 1016.7
20260507145603 59 264 1.0 3.0 0.00 0.00 0.00 63 1016.8
20260507145103 57 264 1.0 2.0 0.00 0.00 0.00 64 1016.9
20260507144602 56 263 0.0 3.0 0.00 0.00 0.00 64 1016.9
20260507144103 56 263 2.0 3.0 0.00 0.00 0.00 63 1017.0
20260507143102 55 237 2.0 3.0 0.00 0.00 0.00 65 1016.9
20260507142603 55 271 2.0 3.0 0.00 0.00 0.00 70 1017.0
20260507142103 55 273 1.0 3.0 0.00 0.00 0.00 69 1017.0
20260507141603 54 273 3.0 5.0 0.00 0.00 0.00 72 1016.9
20260507141103 54 234 2.0 3.0 0.00 0.00 0.00 71 1016.9
20260507140603 53 157 2.0 3.0 0.00 0.00 0.00 74 1016.8
20260507135603 51 157 1.0 2.0 0.00 0.00 0.00 77 1017.1
20260507135104 49 157 1.0 2.0 0.00 0.00 0.00 77 1017.2
20260507134603 49 157 0.0 2.0 0.00 0.00 0.00 80 1017.1
20260507134102 48 157 2.0 3.0 0.00 0.00 0.00 79 1017.3
20260507133603 48 157 2.0 3.0 0.00 0.00 0.00 80 1017.3
20260507133103 47 157 1.0 3.0 0.00 0.00 0.00 81 1017.2
20260507132603 47 157 3.0 5.0 0.00 0.00 0.00 81 1017.1
20260507132103 46 157 4.0 6.0 0.00 0.00 0.00 81 1017.3
20260507131603 45 157 3.0 3.0 0.00 0.00 0.00 82 1017.3
20260507130603 45 159 3.0 6.0 0.00 0.00 0.00 81 1016.8
20260507130103 45 150 3.0 5.0 0.00 0.00 0.00 79 1016.7
20260507125603 46 5 2.0 3.0 0.00 0.00 0.00 80 1016.7
20260507124603 46 170 0.0 1.0 0.00 0.00 0.00 78 1016.5
20260507124103 47 175 1.0 2.0 0.00 0.00 0.00 75 1016.3
20260507123603 48 175 1.0 2.0 0.00 0.00 0.00 76 1016.1
20260507123103 48 173 1.0 3.0 0.00 0.00 0.00 77 1016.0
20260507122602 47 172 1.0 2.0 0.00 0.00 0.00 78 1016.0
20260507122104 47 169 0.0 3.0 0.00 0.00 0.00 79 1016.0
20260507121602 45 169 0.0 2.0 0.00 0.00 0.00 81 1016.3
20260507121103 45 169 0.0 2.0 0.00 0.00 0.00 80 1016.2
20260507120603 45 169 2.0 2.0 0.00 0.00 0.00 79 1016.0
20260507115602 45 169 2.0 3.0 0.00 0.00 0.00 80 1016.0
20260507115103 44 169 2.0 3.0 0.00 0.00 0.00 81 1015.9
20260507114604 45 169 3.0 3.0 0.00 0.00 0.00 81 1015.9
20260507114104 46 169 2.0 3.0 0.00 0.00 0.00 78 1015.7
20260507113604 47 169 1.0 3.0 0.00 0.00 0.00 76 1015.7
20260507112603 49 169 2.0 3.0 0.00 0.00 0.00 73 1015.4
20260507111602 48 169 2.0 3.0 0.00 0.00 0.00 73 1015.6
20260507111103 48 169 1.0 2.0 0.00 0.00 0.00 74 1015.4
20260507110602 48 169 2.0 3.0 0.00 0.00 0.00 74 1015.3
20260507110103 48 169 2.0 3.0 0.00 0.00 0.00 73 1015.2
20260507105603 50 169 3.0 5.0 0.00 0.00 0.00 70 1015.0
20260507105103 50 169 3.0 5.0 0.00 0.00 0.00 70 1014.9
20260507104103 51 169 5.0 6.0 0.00 0.00 0.00 69 1014.8
20260507103604 51 146 4.0 5.0 0.00 0.00 0.00 70 1014.9
20260507103103 50 144 5.0 6.0 0.00 0.00 0.00 71 1014.9
20260507102603 50 140 5.0 6.0 0.00 0.00 0.00 71 1014.9
20260507102103 52 143 3.0 5.0 0.00 0.00 0.00 69 1014.7
20260507101603 52 288 0.0 3.0 0.00 0.00 0.00 68 1014.6
20260507101104 53 288 2.0 5.0 0.00 0.00 0.00 67 1014.5
20260507100603 53 284 2.0 5.0 0.00 0.00 0.00 66 1014.3
20260507100103 54 314 2.0 3.0 0.00 0.00 0.00 65 1014.0
20260507095603 54 319 3.0 5.0 0.00 0.00 0.00 64 1014.0
20260507095103 54 310 3.0 6.0 0.00 0.00 0.00 64 1014.1
20260507094603 55 316 3.0 6.0 0.00 0.00 0.00 63 1014.1
20260507094102 55 311 3.0 6.0 0.00 0.00 0.00 62 1014.1
20260507093603 55 329 3.0 9.0 0.00 0.00 0.00 62 1014.1
20260507093103 55 288 5.0 8.0 0.00 0.00 0.00 61 1014.1
20260507092603 56 293 5.0 9.0 0.00 0.00 0.00 60 1013.9
20260507092103 56 300 6.0 12.0 0.00 0.00 0.00 59 1013.8
20260507091603 56 306 4.0 14.0 0.00 0.00 0.00 59 1013.7
20260507090105 57 299 4.0 9.0 0.00 0.00 0.00 56 1013.7
20260507085103 57 300 6.0 14.0 0.00 0.00 0.00 55 1013.5
20260507084602 57 296 8.0 15.0 0.00 0.00 0.00 54 1013.4
20260507084104 57 294 8.0 12.0 0.00 0.00 0.00 54 1013.4
20260507083603 57 296 7.0 13.0 0.00 0.00 0.00 53 1013.6
20260507082103 57 290 11.0 15.0 0.00 0.00 0.00 55 1013.7
20260507081603 58 291 12.0 15.0 0.00 0.00 0.00 54 1013.6
20260507081103 58 293 10.0 21.0 0.00 0.00 0.00 54 1013.8
20260507080603 57 291 9.0 23.0 0.00 0.00 0.00 56 1014.0
20260507075603 58 290 6.0 12.0 0.00 0.00 0.00 57 1014.0
20260507075103 58 302 5.0 10.0 0.00 0.00 0.00 57 1014.0
20260507074602 58 287 6.0 10.0 0.00 0.00 0.00 57 1014.0
20260507073102 59 283 7.0 15.0 0.00 0.00 0.00 58 1013.4
20260507072103 59 296 6.0 12.0 0.00 0.00 0.00 58 1013.4
20260507071604 59 290 7.0 12.0 0.00 0.00 0.00 58 1013.3
20260507070603 59 289 6.0 12.0 0.00 0.00 0.00 57 1013.5
20260507070103 59 293 7.0 12.0 0.00 0.00 0.00 57 1013.5
20260507065103 60 315 5.0 12.0 0.00 0.00 0.00 56 1013.4
20260507064603 60 291 6.0 10.0 0.00 0.00 0.00 56 1013.5
20260507064103 61 289 6.0 12.0 0.00 0.00 0.00 55 1013.4
20260507063603 61 291 6.0 12.0 0.00 0.00 0.00 55 1013.3
20260507063103 61 298 6.0 14.0 0.00 0.00 0.00 54 1013.3
20260507062603 61 298 9.0 15.0 0.00 0.00 0.00 54 1013.3
20260507062103 61 288 9.0 14.0 0.00 0.00 0.00 54 1013.3
20260507061604 61 291 12.0 18.0 0.00 0.00 0.00 55 1013.3
20260507061103 61 286 13.0 20.0 0.00 0.00 0.00 54 1013.3
20260507060602 61 289 9.0 13.0 0.00 0.00 0.00 56 1013.2
20260507055103 60 291 6.0 10.0 0.00 0.00 0.00 57 1013.2
20260507054602 60 289 6.0 9.0 0.00 0.00 0.00 57 1013.2
20260507054103 61 286 4.0 6.0 0.00 0.00 0.00 57 1013.1
20260507053603 61 291 5.0 6.0 0.00 0.00 0.00 56 1013.2
20260507053103 61 288 5.0 6.0 0.00 0.00 0.00 55 1013.1
20260507052103 62 291 5.0 9.0 0.00 0.00 0.00 54 1013.0
20260507051603 62 292 6.0 10.0 0.00 0.00 0.00 55 1013.0
20260507051103 62 293 6.0 12.0 0.00 0.00 0.00 55 1013.7
20260507050602 62 293 4.0 8.0 0.00 0.00 0.00 55 1013.9
20260507050103 62 288 3.0 7.0 0.00 0.00 0.00 54 1013.9
20260507045602 62 292 4.0 7.0 0.00 0.00 0.00 53 1013.9
20260507045103 63 290 3.0 7.0 0.00 0.00 0.00 53 1013.7
20260507044603 63 294 2.0 7.0 0.00 0.00 0.00 53 1013.6
20260507043603 63 297 5.0 10.0 0.00 0.00 0.00 52 1013.6
20260507043103 63 295 7.0 12.0 0.00 0.00 0.00 53 1013.6
20260507042603 63 295 8.0 12.0 0.00 0.00 0.00 54 1013.6
20260507042103 62 293 6.0 10.0 0.00 0.00 0.00 54 1013.8
20260507041602 62 289 7.0 14.0 0.00 0.00 0.00 54 1013.9
20260507041103 62 295 6.0 10.0 0.00 0.00 0.00 56 1014.1
20260507040602 61 283 9.0 15.0 0.00 0.00 0.00 58 1014.3
20260507040103 59 274 5.0 6.0 0.00 0.00 0.00 62 1014.4
20260507035103 59 241 3.0 3.0 0.00 0.00 0.00 67 1014.4
20260507034603 59 242 2.0 3.0 0.00 0.00 0.00 66 1014.4
20260507033603 59 245 2.0 3.0 0.00 0.00 0.00 66 1014.3
20260507033103 60 261 2.0 3.0 0.00 0.00 0.00 67 1014.2
20260507032603 60 267 2.0 3.0 0.00 0.00 0.00 64 1014.2
20260507031603 62 271 2.0 5.0 0.00 0.00 0.00 62 1014.0
20260507031102 62 272 5.0 6.0 0.00 0.00 0.00 58 1014.1
20260507030603 62 278 5.0 5.0 0.00 0.00 0.00 58 1014.3
20260507025103 62 278 1.0 2.0 0.00 0.00 0.00 60 1014.2
20260507024604 62 278 2.0 3.0 0.00 0.00 0.00 61 1014.1
20260507023603 63 278 3.0 3.0 0.00 0.00 0.00 57 1014.2
20260507022602 63 278 2.0 3.0 0.00 0.00 0.00 59 1014.3
20260507022102 63 277 5.0 5.0 0.00 0.00 0.00 60 1014.4
20260507021603 63 277 3.0 6.0 0.00 0.00 0.00 61 1014.3
20260507021103 63 276 5.0 6.0 0.00 0.00 0.00 60 1014.5
20260507020603 64 277 5.0 7.0 0.00 0.00 0.00 60 1014.6
20260507015603 65 290 1.0 2.0 0.00 0.00 0.00 58 1014.6
20260507015104 65 291 1.0 3.0 0.00 0.00 0.00 58 1014.6
20260507014602 65 293 1.0 3.0 0.00 0.00 0.00 57 1014.6
20260507014103 65 320 2.0 5.0 0.00 0.00 0.00 55 1014.6
20260507013103 66 297 3.0 6.0 0.00 0.00 0.00 58 1014.4
20260507012603 66 287 2.0 3.0 0.00 0.00 0.00 57 1014.4
20260507012102 66 294 1.0 3.0 0.00 0.00 0.00 57 1014.4
20260507011102 67 296 4.0 8.0 0.00 0.00 0.00 55 1015.0
20260507010603 67 350 3.0 9.0 0.00 0.00 0.00 55 1015.1
20260507005603 67 303 3.0 12.0 0.00 0.00 0.00 53 1015.1
20260507005103 68 292 7.0 10.0 0.00 0.00 0.00 53 1014.9
20260507004603 69 270 2.0 3.0 0.00 0.00 0.00 53 1014.9
20260507004103 69 309 2.0 6.0 0.00 0.00 0.00 51 1014.9
20260507003602 69 6 2.0 7.0 0.00 0.00 0.00 52 1014.9
20260507003103 70 303 2.0 7.0 0.00 0.00 0.00 52 1014.6
20260507002603 70 299 3.0 6.0 0.00 0.00 0.00 53 1014.6
20260507002103 70 323 3.0 9.0 0.00 0.00 0.00 52 1014.6
20260507001602 70 330 3.0 8.0 0.00 0.00 0.00 53 1014.5
20260507001103 70 309 5.0 9.0 0.00 0.00 0.00 52 1014.6
20260506235103 71 313 4.0 9.0 0.00 0.00 0.00 53 1014.5
20260506234603 71 324 6.0 13.0 0.00 0.00 0.00 51 1014.5
20260506234103 72 331 5.0 10.0 0.00 0.00 0.00 53 1014.3
20260506233603 72 351 5.0 12.0 0.00 0.00 0.00 52 1014.2
20260506233103 73 307 3.0 9.0 0.00 0.00 0.00 52 1014.2
20260506232603 73 301 2.0 8.0 0.00 0.00 0.00 54 1014.2
20260506232103 73 297 7.0 12.0 0.00 0.00 0.00 52 1014.3
20260506231603 73 338 4.0 12.0 0.00 0.00 0.00 53 1014.2
20260506231102 72 291 4.0 10.0 0.00 0.00 0.00 53 1014.2
20260506230603 72 328 4.0 9.0 0.00 0.00 0.00 55 1014.2
20260506225602 72 341 3.0 10.0 0.00 0.00 0.00 53 1014.3
20260506225103 72 323 3.0 13.0 0.00 0.00 0.00 54 1014.4
20260506224603 73 302 3.0 12.0 0.00 0.00 0.00 52 1014.3
20260506224103 72 326 3.0 10.0 0.00 0.00 0.00 53 1014.6
20260506223602 72 320 5.0 10.0 0.00 0.00 0.00 54 1014.7
20260506223102 72 340 4.0 10.0 0.00 0.00 0.00 53 1014.8
20260506222603 72 331 4.0 12.0 0.00 0.00 0.00 54 1014.9
20260506222103 71 293 5.0 12.0 0.00 0.00 0.00 53 1014.9
20260506221603 71 301 3.0 9.0 0.00 0.00 0.00 52 1014.9
20260506221103 72 319 6.0 12.0 0.00 0.00 0.00 52 1015.0
20260506220603 72 340 6.0 13.0 0.00 0.00 0.00 52 1015.0
20260506215602 72 334 4.0 12.0 0.00 0.00 0.00 52 1015.2
20260506215104 71 343 6.0 13.0 0.00 0.00 0.00 51 1015.5
20260506214102 71 332 5.0 12.0 0.00 0.00 0.00 50 1015.4
20260506213603 72 333 4.0 10.0 0.00 0.00 0.00 52 1015.2
20260506213102 72 308 5.0 10.0 0.00 0.00 0.00 51 1015.2
20260506212603 71 315 4.0 12.0 0.00 0.00 0.00 52 1015.3
20260506212103 72 308 6.0 13.0 0.00 0.00 0.00 49 1015.3
20260506211603 72 338 3.0 13.0 0.00 0.00 0.00 52 1015.2
20260506211102 72 314 5.0 12.0 0.00 0.00 0.00 50 1015.3
20260506210603 72 340 5.0 10.0 0.00 0.00 0.00 51 1015.0
20260506205602 72 12 3.0 12.0 0.00 0.00 0.00 52 1015.1
20260506205103 71 351 3.0 12.0 0.00 0.00 0.00 54 1015.1
20260506204603 70 304 3.0 10.0 0.00 0.00 0.00 56 1015.5
20260506204103 69 291 6.0 15.0 0.00 0.00 0.00 53 1015.6
20260506203102 70 284 9.0 16.0 0.00 0.00 0.00 48 1015.8
20260506202603 71 325 6.0 12.0 0.00 0.00 0.00 53 1015.6
20260506202102 71 293 5.0 10.0 0.00 0.00 0.00 51 1015.6
20260506201602 71 314 3.0 7.0 0.00 0.00 0.00 53 1015.6
20260506200603 70 341 5.0 10.0 0.00 0.00 0.00 55 1015.4